"Pseudo-MPEC" for P11gO7R

Created 2021 Jun 17 4:07:19 UT using Find_Orb

Click here for an explanation of pseudo-MPECs

 
 Astrometry: 
     P11gO7R  C2021 06 07@/5f?*=f)(!y7^XyGt$9i3cCqAm#-1Cpc5^UA.VtynSS;UMtHp-eF51
     P11gO7R  C2021 06 07:X--[nr$dLASdH.+V033c(h6j`cUBba#0Y\t_#MIK[U\T5lgHUo6F51
     P11gO7R  C2021 06 07ErZ+[5`WRG5b[q]@NdjTFy6T4\A\kjLj,ORu5/M7DjL;'FDkjxkiF51
     P11gO7R  C2021 06 07hEWJ@mo1s_M%h%UXi\I3Lu)SAMy2%j!m63qVfA%IYmN4Kqqt+wI4F51
     P11gO7R  C2021 06 07+k;*W@t23dE*uLJ)e_vnNeyPpvT^[ySeVs:h`$hjynnptw[YN)-*F51
     P11gO7R  C2021 06 08o`4?]hXg1^C+xfkVT60H^v\;UdE=n:W\3:Kk38#K6b#V-3dCCf(#T12
     P11gO7R  C2021 06 08b?q(hP2F2AstrometryE:7k'*HRredacted;@d/PqC:;@wDho=9QT12
     P11gO7R  C2021 06 085('GNmFB+7J5click9V/#f_ucSj)YA'!6xng3vHZ$o[GrKif'RimT12
     P11gO7R  C2021 06 09kVD.:W)A2?t'`-WbB\X#]2O.V;5._]#mDfao)4i#o)dMl,cJcF69T12
     P11gO7R  C2021 06 09.lTw!mZ!q(y7i!`LjO)9YnfKTOOOeWhere]Xe[YYo4*Q3AAi[G31T12
     P11gO7R  C2021 06 09QLDymISvxqL=(cunx.'nvey0`tyABfRs8Pr_y%\ww.o%KjMJSTrOT12
     P11gO7R  C2021 06 09?q9for%ll!4XSaK^30]8l5iT*oexplanationZNv*'Q1JMJ*?=+-T12
     P11gO7R ^C2021 06 11.27929416 52 37.774+22 43 24.88   ~6BD7 22.92GVNEOCP568
     P11gO7R ^C2021 06 11.28191016 52 37.402+22 43 26.70   ~6BD7 22.80GVNEOCP568
     P11gO7R ^C2021 06 11.28346916 52 37.174+22 43 27.83   ~6BD7 22.78GVNEOCP568
     P11gO7R ^C2021 06 11.33010616 52 30.573+22 44 00.30   ~6BD7 22.24GVNEOCP568
     P11gO7R |C2021 06 12O8Hv5e4(1Iq@S@'=^cH`NLgRV-o;ny.qS^,r4PA`JtJVw.sEHGL5H06
     P11gO7R |C2021 06 12y\vIxE`UDt=7$8wNgWRCU`pTb=QpcNs;su!iQyk%\)/Y1vk=s#iTH06

Station data:
(568) Mauna Kea  (N19.826116 W155.472200)  US/Hawaii.
(F51) Pan-STARRS 1, Haleakala  (N20.707235 W156.255910)  US/Hawaii.
   Observers N. Primak, A. Schultz, S. Watters, J. Thiel, T. Goggia. Measurer
   PS1 Science Consortium. 1.8-m Ritchey-Chrétien + CCD.
(H06) RAS Observatory, Mayhill  (N32.903325 W105.528700)  US/New
   Mexico.  Observers E. Guido, G. Sostero, V. Gonano, L. Donato.
(T12) Mauna Kea-UH/Tholen NEO Follow-Up (2.24-m)  (N19.822991 W155.469434)
   US/Hawaii.  Observers D. Fohring, D. Hung, Y. Ramanjooloo, Z. Claytor, D.
   J. Tholen. 2.24-m University of Hawaii reflector.

Orbital elements:  P11gO7R
   Perihelion 2021 Mar 23.865581 +/- 1.47206 TT = 20:46:26 (JD 2459297.365581)
Epoch 2021 Jun 12.0 TT = JDT 2459377.5                        AutoNEOCP
M   0.04868487 +/- 0.1546521        (J2000 ecliptic)
n   0.00060754 +/- 0.00133404       Peri.   27.66017 +/- 0.3967279
a 138.065788 +/- 201.526            Node   284.55144 +/- 0.1997607
e   0.9754366 +/- 0.0357203         Incl.  129.36322 +/- 0.1262398
P1622.29                   H 17.3   G  0.15   U  8.3  
q 3.39136371 +/- 0.00994028    Q 272.740212 +/- 133.401
From 18 observations 2021 June 7-12; mean residual 0".15
Residuals in arcseconds: 
210607 F51  .25-  .00     210608 T12  .04+  .01+    210611 568  .26+  .00     
210607 F51  .24-  .05+    210608 T12  .02+  .01+    210611 568  .24+  .01-    
210607 F51  .44-  .07+    210609 T12  .02-  .01-    210611 568  .14+  .03+    
210607 F51  .03-  .17-    210609 T12  .02-  .01-    210611 568  .24+  .00     
210607 F51  .29-  .21-    210609 T12  .05-  .01+    210612 H06  .03-  .27+    
210608 T12  .07+  .01+    210609 T12  .02-  .01-    210612 H06  .13-  .17-    

Ephemerides (geocentric):
Date (UTC) HH   RA              Dec         delta   r     elong  mag " sig PA
---- -- -- --  -------------   -----------  ------ ------ -----  --- ---- ---
2021 06 17 04  16 39 00.827   +23 43 44.53  2.7348 3.4810 130.5 22.9 1.38  13
2021 06 17 05  16 38 55.148   +23 44 06.88  2.7352 3.4811 130.4 22.9 1.39  13
2021 06 17 06  16 38 49.471   +23 44 29.18  2.7356 3.4812 130.4 22.9 1.41  13
2021 06 17 07  16 38 43.795   +23 44 51.43  2.7360 3.4813 130.4 22.9 1.43  13
2021 06 17 08  16 38 38.122   +23 45 13.64  2.7363 3.4814 130.4 22.9 1.44  12
2021 06 17 09  16 38 32.450   +23 45 35.80  2.7367 3.4815 130.3 22.9 1.46  12
2021 06 17 10  16 38 26.779   +23 45 57.92  2.7371 3.4816 130.3 22.9 1.47  12
2021 06 17 11  16 38 21.111   +23 46 20.00  2.7375 3.4816 130.3 22.9 1.49  12
2021 06 17 12  16 38 15.444   +23 46 42.02  2.7379 3.4817 130.2 22.9 1.50  12
2021 06 17 13  16 38 09.779   +23 47 04.01  2.7383 3.4818 130.2 22.9 1.52  12
2021 06 17 14  16 38 04.116   +23 47 25.94  2.7387 3.4819 130.2 22.9 1.54  12
2021 06 17 15  16 37 58.454   +23 47 47.84  2.7390 3.4820 130.2 22.9 1.55  12
2021 06 17 16  16 37 52.795   +23 48 09.68  2.7394 3.4821 130.1 22.9 1.57  12
2021 06 17 17  16 37 47.137   +23 48 31.48  2.7398 3.4822 130.1 22.9 1.58  12
2021 06 17 18  16 37 41.481   +23 48 53.24  2.7402 3.4822 130.1 22.9 1.60  12
2021 06 17 19  16 37 35.827   +23 49 14.95  2.7406 3.4823 130.1 22.9 1.62  12
2021 06 17 20  16 37 30.174   +23 49 36.61  2.7410 3.4824 130.0 22.9 1.63  12
2021 06 17 21  16 37 24.524   +23 49 58.23  2.7414 3.4825 130.0 22.9 1.65  12
2021 06 17 22  16 37 18.875   +23 50 19.81  2.7418 3.4826 130.0 22.9 1.67  12
2021 06 17 23  16 37 13.228   +23 50 41.34  2.7422 3.4827 129.9 22.9 1.68  12
2021 06 18 00  16 37 07.583   +23 51 02.82  2.7426 3.4828 129.9 22.9 1.70  12
2021 06 18 01  16 37 01.940   +23 51 24.26  2.7430 3.4829 129.9 22.9 1.72  12
2021 06 18 02  16 36 56.298   +23 51 45.65  2.7434 3.4829 129.9 22.9 1.73  11
2021 06 18 03  16 36 50.659   +23 52 07.00  2.7438 3.4830 129.8 22.9 1.75  11
2021 06 18 04  16 36 45.021   +23 52 28.30  2.7442 3.4831 129.8 22.9 1.77  11
2021 06 18 05  16 36 39.385   +23 52 49.56  2.7446 3.4832 129.8 22.9 1.79  11
2021 06 18 06  16 36 33.751   +23 53 10.77  2.7449 3.4833 129.7 22.9 1.80  11
2021 06 18 07  16 36 28.119   +23 53 31.94  2.7453 3.4834 129.7 22.9 1.82  11
2021 06 18 08  16 36 22.489   +23 53 53.06  2.7457 3.4835 129.7 22.9 1.84  11
2021 06 18 09  16 36 16.860   +23 54 14.14  2.7461 3.4836 129.7 22.9 1.86  11
2021 06 18 10  16 36 11.234   +23 54 35.17  2.7466 3.4836 129.6 22.9 1.87  11
2021 06 18 11  16 36 05.609   +23 54 56.16  2.7470 3.4837 129.6 22.9 1.89  11
2021 06 18 12  16 35 59.987   +23 55 17.10  2.7474 3.4838 129.6 22.9 1.91  11
2021 06 18 13  16 35 54.366   +23 55 38.00  2.7478 3.4839 129.5 22.9 1.93  11
2021 06 18 14  16 35 48.747   +23 55 58.85  2.7482 3.4840 129.5 22.9 1.94  11
2021 06 18 15  16 35 43.130   +23 56 19.66  2.7486 3.4841 129.5 22.9 1.96  11
2021 06 18 16  16 35 37.515   +23 56 40.42  2.7490 3.4842 129.5 22.9 1.98  11
2021 06 18 17  16 35 31.902   +23 57 01.14  2.7494 3.4843 129.4 22.9 2.00  11
2021 06 18 18  16 35 26.291   +23 57 21.81  2.7498 3.4843 129.4 22.9 2.02  11
2021 06 18 19  16 35 20.682   +23 57 42.43  2.7502 3.4844 129.4 22.9 2.03  11
2021 06 18 20  16 35 15.075   +23 58 03.02  2.7506 3.4845 129.3 22.9 2.05  10
2021 06 18 21  16 35 09.470   +23 58 23.55  2.7510 3.4846 129.3 22.9 2.07  10
2021 06 18 22  16 35 03.866   +23 58 44.05  2.7514 3.4847 129.3 22.9 2.09  10
2021 06 18 23  16 34 58.265   +23 59 04.49  2.7518 3.4848 129.3 22.9 2.11  10
2021 06 19 00  16 34 52.666   +23 59 24.90  2.7522 3.4849 129.2 22.9 2.13  10
2021 06 19 01  16 34 47.068   +23 59 45.26  2.7527 3.4850 129.2 22.9 2.15  10
2021 06 19 02  16 34 41.473   +24 00 05.57  2.7531 3.4850 129.2 22.9 2.17  10
2021 06 19 03  16 34 35.880   +24 00 25.84  2.7535 3.4851 129.1 22.9 2.18  10